Dania, FL

1:24 PM EST on February 10, 2016 (GMT -0500)
Fort Lauderdale-Hollywood International

Weather History for KFLL - October, 2013

Change the Weather History Date:

Friday, October 11, 2013

  Actual Average Record
Temperature  
Mean Temperature 79 °F 82 °F  
Max Temperature 86 °F 87 °F 93 °F (1936)
Min Temperature 72 °F 76 °F 62 °F (1951)
Degree Days  
Heating Degree Days 0 0  
Month to date heating degree days 0 0  
Since 1 July heating degree days 0 0  
Cooling Degree Days 14 16  
Month to date cooling degree days 175 187  
Year to date cooling degree days 3735 3899  
Growing Degree Days 28 (Base 50)    
Moisture  
Dew Point 67 °F    
Average Humidity 76    
Maximum Humidity 93    
Minimum Humidity 58    
Precipitation  
Precipitation 0.00 in 0.28 in 5.75 in (1929)
Month to date precipitation 0.96 3.08  
Year to date precipitation 61.73 52.74  
Snow  
Snow 0.00 in - - ()
Month to date snowfall 0.0  
Since 1 July snowfall 0.0  
Since 1 September snowfall 0.0  
Snow Depth 0.00 in    
Sea Level Pressure  
Sea Level Pressure 29.97 in    
Wind  
Wind Speed 8 mph (NE)    
Max Wind Speed 17 mph    
Max Gust Speed 22 mph    
Visibility 10 miles    
Events      
T = Trace of Precipitation, MM = Missing Value Source: NWS Daily Summary

Daily Weather History Graph

Daily Weather History Graph

Search for Another Location

Airport or City:

Trip Planner

Search our weather history database for the weather conditions in past years. The results will help you decide how hot, cold, wet, or windy it might be!

Date:

Astronomy

Oct. 11, 2013 Rise Set
Actual Time 7:17 AM EDT 6:56 PM EDT
Civil Twilight 6:54 AM EDT 7:19 PM EDT
Nautical Twilight 6:27 AM EDT 7:46 PM EDT
Astronomical Twilight 6:01 AM EDT 8:13 PM EDT
Moon 1:40 PM EDT (10/11) No Moon Set
Length of Visible Light 12h 25m
Length of Day
11h 38m
Waxing Crescent, 47% of the Moon is Illuminated
Oct 11
Waxing Crescent
Oct 11
First Quarter
Oct 18
Full
Oct 26
Last Quarter
Nov 3
New

Hourly Weather History & Observations

Time (EDT) Temp. Heat Index Dew Point Humidity Pressure Visibility Wind Dir Wind Speed Gust Speed Precip Events Conditions
12:53 AM 75.9 °F - 66.9 °F 74% 29.97 in 10.0 mi NNE 4.6 mph - N/A   Partly Cloudy
1:53 AM 75.9 °F - 68.0 °F 76% 29.96 in 10.0 mi NE 5.8 mph - N/A   Partly Cloudy
2:53 AM 73.9 °F - 68.0 °F 82% 29.95 in 10.0 mi Calm Calm - N/A   Partly Cloudy
3:53 AM 73.0 °F - 68.0 °F 84% 29.95 in 10.0 mi NNW 3.5 mph - N/A   Partly Cloudy
4:53 AM 72.0 °F - 69.1 °F 91% 29.94 in 10.0 mi NNW 3.5 mph - N/A   Partly Cloudy
5:53 AM 73.0 °F - 68.0 °F 84% 29.96 in 10.0 mi NNW 4.6 mph - N/A   Partly Cloudy
6:53 AM 72.0 °F - 68.0 °F 87% 29.97 in 10.0 mi NNW 3.5 mph - N/A   Partly Cloudy
7:53 AM 73.0 °F - 69.1 °F 87% 29.99 in 10.0 mi NW 3.5 mph - N/A   Partly Cloudy
8:53 AM 78.1 °F - 70.0 °F 76% 30.01 in 10.0 mi North 3.5 mph - N/A   Partly Cloudy
9:53 AM 82.0 °F 84.9 °F 68.0 °F 62% 30.01 in 10.0 mi NE 9.2 mph - N/A   Partly Cloudy
10:53 AM 82.9 °F 85.8 °F 68.0 °F 60% 30.01 in 10.0 mi ENE 10.4 mph - N/A   Partly Cloudy
11:53 AM 84.0 °F 87.0 °F 68.0 °F 58% 30.01 in 10.0 mi ENE 9.2 mph 18.4 mph N/A   Partly Cloudy
12:53 PM 84.9 °F 88.8 °F 69.1 °F 59% 29.99 in 10.0 mi NE 10.4 mph 17.3 mph N/A   Partly Cloudy
1:53 PM 84.9 °F 88.8 °F 69.1 °F 59% 29.97 in 10.0 mi NE 8.1 mph - N/A   Partly Cloudy
2:53 PM 84.0 °F 87.0 °F 68.0 °F 58% 29.96 in 10.0 mi ENE 12.7 mph - N/A   Partly Cloudy
3:53 PM 82.9 °F 85.4 °F 66.9 °F 58% 29.95 in 10.0 mi NE 13.8 mph - N/A   Partly Cloudy
4:53 PM 82.0 °F 84.1 °F 66.0 °F 58% 29.95 in 10.0 mi ENE 15.0 mph - N/A   Partly Cloudy
5:53 PM 82.0 °F 84.5 °F 66.9 °F 60% 29.95 in 10.0 mi ENE 15.0 mph - N/A   Partly Cloudy
6:53 PM 80.1 °F 82.1 °F 66.0 °F 62% 29.95 in 10.0 mi ENE 10.4 mph - N/A   Partly Cloudy
7:53 PM 79.0 °F - 64.9 °F 62% 29.96 in 10.0 mi ENE 8.1 mph - N/A   Partly Cloudy
8:53 PM 79.0 °F - 64.9 °F 62% 29.98 in 10.0 mi East 8.1 mph - N/A   Partly Cloudy
9:53 PM 79.0 °F - 64.9 °F 62% 29.99 in 10.0 mi ENE 9.2 mph - N/A   Clear
10:53 PM 79.0 °F - 64.9 °F 62% 30.00 in 10.0 mi East 8.1 mph - N/A   Clear
11:53 PM 78.1 °F - 64.0 °F 62% 29.99 in 10.0 mi East 5.8 mph - N/A   Clear